Regional Weather Roundup
Issued by NWS

Home | Current Version | Previous Version | Graphics & Text | Print | Product List | Glossary On
Versions: 1 2 3 4 5 6 7 8 9 10 11 12 13 14 15 16 17 18 19 20 21 22 23 24 25 26 27 28 29 30 31 32 33 34 35 36 37 38 39 40 41 42 43 44 45 46 47 48 49 50
000
ASUS45 KCYS 071410
RWRWY

WYOMING REGIONAL WEATHER ROUNDUP
NATIONAL WEATHER SERVICE CHEYENNE WY
800 AM MDT TUE JUL 07 2015

NOTE:  "FAIR" INDICATES FEW OR NO CLOUDS BELOW 12,000 FEET
WITH NO SIGNIFICANT WEATHER AND/OR OBSTRUCTIONS TO VISIBILITY.

WYZ001-071500-
YELLOWSTONE NATIONAL PARK

CITY           SKY/WX    TMP DP  RH WIND       PRES   REMARKS
LK YELLOWSTONE   N/A     52  48  86 CALM      30.32R
W YELLOWSTONE  NOT AVBL

$$
WYZ002>013-054>058-071-098>099-071500-
NORTHERN WYOMING

CITY           SKY/WX    TMP DP  RH WIND       PRES   REMARKS
JACKSON        SUNNY     54  50  87 CALM      30.25R
CODY           FAIR      59  52  77 CALM      30.15S
GREYBULL       FAIR      62  50  64 NW3       30.10R
WORLAND        CLOUDY    62  55  77 CALM      30.10S
SHERIDAN       FAIR      55  52  89 CALM      30.11R
BUFFALO        FAIR      59  52  77 CALM      30.14S
GILLETTE       FAIR      61  53  75 S18       30.13S HAZE
HULETT         FAIR      64  54  68 S14       30.15S HAZE
NEWCASTLE      FAIR      63  52  67 SE12      30.17F

$$
WYZ014>020-022>026-101>103-071500-
CENTRAL WYOMING

CITY           SKY/WX    TMP DP  RH WIND       PRES   REMARKS
BIG PINEY      FAIR      54  51  90 CALM      30.26F
PINEDALE       CLOUDY    54  50  87 N3        30.27S
DUBOIS         CLOUDY    54  45  71 N6        30.25S
LANDER         PTSUNNY   60  52  74 W5        30.17R
RIVERTON       FAIR      61  54  77 NW5       30.17S
CASPER         FAIR      57  52  83 S3        30.17F HAZE
DOUGLAS        FAIR      60  55  83 SE13      30.17S HAZE

$$
WYZ021-027>030-104>119-071500-
SOUTHERN WYOMING

CITY           SKY/WX    TMP DP  RH WIND       PRES   REMARKS
EVANSTON       PTSUNNY   54  51  90 E12       30.26R
KEMMERER       FAIR      54  48  82 CALM      30.28R
FORT BRIDGER   PTSUNNY   55  55 100 CALM      30.29R FOG
ROCK SPRINGS   FAIR      56  53  90 CALM      30.24R
DIXON          CLOUDY    58  53  84 E5        30.24F
RAWLINS        CLOUDY    58  52  80 CALM      30.23S
SARATOGA       CLOUDY    55  52  88 CALM      30.25S
LARAMIE        CLOUDY    52  51  97 S17       30.26R FOG
CHEYENNE       PTSUNNY   55  51  86 S12G21    30.24S FOG
TORRINGTON     CLOUDY    62  55  77 SE10      30.18R HAZE
PINE BLUFFS    PTSUNNY   59  50  72 S13       30.23S

$$


USA.gov is the U.S. government's official web portal to all federal, state and local government web resources and services.